STARLINK-32952, 63146

Orbit data source: Space-Track

STARLINK-32952, 63146 is a payload satellite owned by SpaceX/Seattle (US) in LEO that was launched on Mon, 03 Mar 2025 UTC via an FALCON 9 launch vehicle from the Air Force Eastern Test Range (AFETR). Payload-class satellites include a variety of spacecraft equipped with specific instruments for various scientific and technological missions. These include communications satellites like Starlink; space stations such as the ISS; scientific satellites like the Hubble; Earth observation satellites from companies like Planet Labs, Umbra, and HawkEye 360; GPS; miniature CubeSats for education and research; and military/defense satellites.

Loading next visibility...
Identifier
63146, 2025-043Q
Orbit
LEO
Country
Flag of USUS
Related business
Manufacturer
SpaceX/Seattle
Mission
Operational Commercial Communications
Bus & Motor
STARLINK V2M, Unknown motor
Mass
730 kg wet, ~700 kg dry
Launch date (UTC)
2025-03-03 (6 months ago)
Launch vehicle
FALCON 9
Launch site
Air Force Eastern Test Range (AFETR)
Object type
Payload
Rocket body
Debris
Shape & HBR
Box + 2 Pan, 14.5 m
Radar Cross Section
33.884 m², Large (>1 m²)

Expand to show TLE details & history
Last TLE update: 13 hours ago

TLE from 13 hours ago
0 STARLINK-32952
1 63146U 25043Q   25258.38888007  .00037528  00000-0  13641-2 0  9990
2 63146  42.9995 293.0362 0000545 134.5463 225.5434 15.27633309 31104
Epoch: 2025-09-15T09:19Z
TLE epoch observation values (Epoch: 2025-09-15T09:19:59.238Z)
Latitude
0.00005°
Longitude
158.44519°
Altitude
482.927 km
Speed
7.626 km/s
True Right ascension
19h 32m 08s
True Declination
0° 00' 00"
Sunlit
Object was in full shadow at epoch
Visualization orbit readout
Latitude
Unknown
Longitude
Unknown
Altitude
Unknown
Speed
Unknown
Apparent Right ascension
Unknown
Apparent Declination
Unknown
Sunlit
N/A
Visualization observer readout
Local Sidereal Time
14:41:39
Azimuth
Unknown
Elevation
Unknown
Doppler factor
Unknown
Orbital elements
Apogee altitude
485.209 km
Perigee altitude
484.461 km
Semi-major axis
6,862.972 km
Eccentricity
0.00005
Inclination
42.9995°
RAAN
293.0362°
Arg. of periapsis
134.5463°
True anomaly
225.53894°
Mean anomaly
225.5434°
Eccentric anomaly
225.54117°
Mean motion
3.81746 °/min
Orbital period
94.3 mins
BSTAR
0.0013641
Loading maneuver chart data...
Computing Atmospheric mass density...
Loading historical data...
Loading historical data...
Loading historical data...
Loading historical data...
Loading historical data...
Loading historical data...
Loading historical data...

Documentation

Showing up to 5 results
|